Location: Bennemühlen
(52.5740°N, 9.7135°E)
Time: 06:59:17
(UTC+00:00)

Okean 3 Rocket - Pass Details

Date: 19 May 2025
Orbit: 611 x 638 km, 82.5° (Epoch: 21 June)

Event Time Altitude Azimuth Distance (km) Brightness Sun altitude
Rises 21:50:20 0° 351° (N) 2,901 8.7 -15.0°
Reaches altitude 10° 21:52:35 10° 354° (N) 1,994 7.4 -15.1°
Maximum altitude 21:56:58 64° 76° (ENE) 693 3.7 -15.4°
Enters shadow 21:59:16 27° 151° (SSE) 1,200 4.4 -15.5°
